Find Starlink 32658

NORAD ID: 62999 Int'l Des: 2025-031 Owner: SPXS Country: US Constellation: starlink operational
LEOCIRCULAR

Current View

Loading 3D Globe...

About Starlink 32658

Starlink 32658 (NORAD 62999) is a starlink constellation satellite (v2 mini) launched Feb 11, 2025 by SPXS of US. It operates in LEO, CIRCULAR orbit with a mass of 730.00 kg.

About Starlink 32658

Description loading...

Upcoming Passes

Passes for default location (London). Set your location on the main map for personalized predictions.

Altitude History

Loading altitude history...

Two-Line Element Set

1 62999U 25031U 26168.05598116 .00023554 00000-0 86210-3 0 9993
2 62999 43.0003 302.0264 0002041 271.2319 88.8299 15.27602288 76295
Epoch: Jun 17, 2026 • Age: 13 hours

Current Status

Altitude 483.9 km
Velocity 7.63 km/s
Sub-Earth Point 27.42°N, 144.44°W
Launch Date Feb 11, 2025
Age 1.3 years
Type internet

Technical Details

Classification Payload
Mass 730.00 kg
Dry Mass 700.00 kg
Total Mass 730.00 kg
Length 0.30 m
Diameter 4.10 m
Span 29.00 m
Shape Box + pan
Manufacturer SPXS
Bus Type Starlink V2M
Phase Status In Orbit
Owner/State SPXS/US

Most Searched